Regional Weather Roundup
Issued by NWS

Home | Current Version | Previous Version | Graphics & Text | Print | Product List | Glossary On
Versions: 1 2 3 4 5 6 7 8 9 10 11 12 13 14 15 16 17 18 19 20 21 22 23 24 25 26 27 28 29 30 31 32 33 34 35 36 37 38 39 40 41 42 43 44 45 46 47 48 49 50
000
ASUS43 KIND 281909
RWRIN

WEATHER ROUNDUP FOR INDIANA
NATIONAL WEATHER SERVICE INDIANAPOLIS IN
200 PM EST FRI NOV 28 2014

NOTE: "FAIR" INDICATES FEW OR NO CLOUDS BELOW 12,000 FEET WITH NO
SIGNIFICANT WEATHER AND/OR OBSTRUCTIONS TO VISIBILITY.

* - STATION DOES NOT REPORT WEATHER SUCH AS PRECIPITATION OR FOG.

+ - STATION NOT QUALITY CONTROLLED BY THE NATIONAL WEATHER SERVICE.
    USE DATA WITH CAUTION...ESPECIALLY DEWPOINT AND RELATIVE
    HUMIDITY OBSERVATIONS.

INZ001>003-010>013-019-020-282000-
NORTHWEST INDIANA

CITY           SKY/WX    TMP DP  RH WIND       PRES   REMARKS
GARY /AIRPORT/ PTSUNNY   32  18  55 SE22      30.10F WCI  19
KNOX *+        SUNNY     30  20  67 SE10      30.15F WCI  21
LA PORTE +     MOSUNNY   31  21  68 S13       30.13F WCI  21
MICHIGAN CITY+ MOSUNNY   30  18  59 S8        30.12F WCI  23
MONTICELLO +   MOSUNNY   30  18  60 S8        30.16F WCI  22
RENSSELAER +   PTSUNNY   32  23  69 SE15      30.13F WCI  22
VALPARAISO     MOSUNNY   29  19  66 SE10G20   30.11F WCI  20

$$

LMZ046-743>745-282000-
SOUTHERN LAKE MICHIGAN

STATION/POSITION TIME  TEMP WIND        PRES
                       AIR  DIR/SP/G
                 (UTC) (F)  (DEG/KT/KT) (MB)
MICHIGAN CITY    1900   28  130/ 14/ 18   N/A

$$

INZ004-005-014>016-021>024-282000-
NORTH CENTRAL INDIANA

CITY           SKY/WX    TMP DP  RH WIND       PRES   REMARKS
GOSHEN         PTSUNNY   27  17  66 S9        30.18F WCI  18
LOGANSPORT +   SUNNY     32  18  55 S13       30.18F WCI  22
PERU/GRISSOM   MOSUNNY   31  19  60 S10       30.18F WCI  23
ROCHESTER +    MOSUNNY   32  21  64 S9        30.18F WCI  24
SOUTH BEND     CLOUDY    27  18  69 SE14      30.16F WCI  16
WARSAW +       PTSUNNY   28  19  69 S9        30.18F WCI  20

$$

INZ006>009-017-018-025>027-282000-
NORTHEAST INDIANA

CITY           SKY/WX    TMP DP  RH WIND       PRES   REMARKS
ANGOLA *+      CLOUDY    23  18  80 S8        30.18F WCI  14
AUBURN +       FLURRIES  28  19  69 S6        30.21F WCI  22
FORT WAYNE     PTSUNNY   29  18  63 S12       30.21F WCI  19
HUNTINGTON +   PTSUNNY   30  18  60 S8G16     30.19F WCI  22

$$

INZ028-029-035-036-043>045-051>053-282000-
WEST CENTRAL INDIANA

CITY           SKY/WX    TMP DP  RH WIND       PRES   REMARKS
GREENCASTLE +  PTSUNNY   32  23  69 S15       30.18F WCI  22
LAFAYETTE      PTSUNNY   31  20  63 S9G21     30.15F WCI  23
TERRE HAUTE    PTSUNNY   37  26  64 S17       30.17F

$$

INZ030>032-037>040-046>048-054>057-064-065-282000-
CENTRAL INDIANA

CITY           SKY/WX    TMP DP  RH WIND       PRES   REMARKS
ANDERSON       MOSUNNY   30  16  55 S12       30.22F WCI  21
CP ATTERBURY + PTSUNNY   32  21  64 S9        30.23F WCI  24
COLUMBUS       PTSUNNY   32  21  64 S12       30.24F WCI  23
FRANKFORT +    MOSUNNY   31  22  70 SE12G17   30.18F WCI  22
INDIANAPOLIS   PTSUNNY   32  19  58 S13       30.19F WCI  22
-EAGLE CREEK   PTSUNNY   31  18  58 SE12      30.19F WCI  22
KOKOMO *+      MOSUNNY   30  18  59 S14       30.19F WCI  20
MARION +         N/A     30  16  54 S8        30.20F WCI  23
MT COMFORT *+  MOSUNNY   32  12  43 S12       30.21F WCI  23
SHELBYVILLE    PTSUNNY   33  20  58 S13       30.22F WCI  24
ZIONSVILLE +   MOSUNNY   31  17  57 S12       30.19F WCI  21

$$

INZ033-034-041-042-049-050-058-059-282000-
EAST CENTRAL INDIANA

CITY           SKY/WX    TMP DP  RH WIND       PRES   REMARKS
MUNCIE         MOSUNNY   31  15  52 S9        30.21F WCI  23

$$

INZ060-061-067>069-081>083-085>088-282000-
SOUTHWEST INDIANA

CITY           SKY/WX    TMP DP  RH WIND       PRES   REMARKS
EVANSVILLE     SUNNY     41  28  60 S13       30.22F
HUNTINGBURG *+ MOSUNNY   37  27  65 S13       30.24F
WASHINGTON +   MOSUNNY   38  31  74 S16       30.20F

$$

INZ062-063-066-070>080-084-089>092-282000-
SOUTH CENTRAL AND SOUTHEAST INDIANA

CITY           SKY/WX    TMP DP  RH WIND       PRES   REMARKS
BLOOMINGTON    PTSUNNY   35  24  64 S9        30.21F WCI  28

$$



USA.gov is the U.S. government's official web portal to all federal, state and local government web resources and services.